Year,Month,Day,Hour,Minute,Value (Times are PST for temperature in C)
2019,03,04,00,00,-3.20
2019,03,04,00,01,-3.20
2019,03,04,00,02,-3.20
2019,03,04,00,03,-3.20
2019,03,04,00,04,-3.30
2019,03,04,00,05,-3.30
2019,03,04,00,06,-3.30
2019,03,04,00,07,-3.30
2019,03,04,00,08,-3.30
2019,03,04,00,09,-3.30
2019,03,04,00,10,-3.30
2019,03,04,00,11,-3.30
2019,03,04,00,12,-3.30
2019,03,04,00,13,-3.30
2019,03,04,00,14,-3.30
2019,03,04,00,15,-3.30
2019,03,04,00,16,-3.30
2019,03,04,00,17,-3.30
2019,03,04,00,18,-3.30
2019,03,04,00,19,-3.30
2019,03,04,00,20,-3.30
2019,03,04,00,21,-3.30
2019,03,04,00,22,-3.30
2019,03,04,00,23,-3.30
2019,03,04,00,24,-3.20
2019,03,04,00,25,-3.20
2019,03,04,00,26,-3.20
2019,03,04,00,27,-3.20
2019,03,04,00,28,-3.20
2019,03,04,00,29,-3.20
2019,03,04,00,30,-3.20
2019,03,04,00,31,-3.20
2019,03,04,00,32,-3.20
2019,03,04,00,33,-3.20
2019,03,04,00,34,-3.20
2019,03,04,00,35,-3.20
2019,03,04,00,36,-3.20
2019,03,04,00,37,-3.20
2019,03,04,00,38,-3.20
2019,03,04,00,39,-3.20
2019,03,04,00,40,-3.20
2019,03,04,00,41,-3.30
2019,03,04,00,42,-3.30
2019,03,04,00,43,-3.30
2019,03,04,00,44,-3.30
2019,03,04,00,45,-3.30
2019,03,04,00,46,-3.30
2019,03,04,00,47,-3.30
2019,03,04,00,48,-3.40
2019,03,04,00,49,-3.40
2019,03,04,00,50,-3.40
2019,03,04,00,51,-3.40
2019,03,04,00,52,-3.50
2019,03,04,00,53,-3.50
2019,03,04,00,54,-3.50
2019,03,04,00,55,-3.60
2019,03,04,00,56,-3.60
2019,03,04,00,57,-3.60
2019,03,04,00,58,-3.60
2019,03,04,00,59,-3.60
2019,03,04,01,00,-3.70
2019,03,04,01,01,-3.70
2019,03,04,01,02,-3.70
2019,03,04,01,03,-3.70
2019,03,04,01,04,-3.70
2019,03,04,01,05,-3.70
2019,03,04,01,06,-3.80
2019,03,04,01,07,-3.80
2019,03,04,01,08,-3.80
2019,03,04,01,09,-3.80
2019,03,04,01,10,-3.80
2019,03,04,01,11,-3.80
2019,03,04,01,12,-3.70
2019,03,04,01,13,-3.70
2019,03,04,01,14,-3.70
2019,03,04,01,15,-3.70
2019,03,04,01,16,-3.60
2019,03,04,01,17,-3.60
2019,03,04,01,18,-3.60
2019,03,04,01,19,-3.60
2019,03,04,01,20,-3.60
2019,03,04,01,21,-3.50
2019,03,04,01,22,-3.50
2019,03,04,01,23,-3.50
2019,03,04,01,24,-3.40
2019,03,04,01,25,-3.40
2019,03,04,01,26,-3.40
2019,03,04,01,27,-3.40
2019,03,04,01,28,-3.40
2019,03,04,01,29,-3.40
2019,03,04,01,30,-3.40
2019,03,04,01,31,-3.40
2019,03,04,01,32,-3.40
2019,03,04,01,33,-3.40
2019,03,04,01,34,-3.50
2019,03,04,01,35,-3.50
2019,03,04,01,36,-3.50
2019,03,04,01,37,-3.50
2019,03,04,01,38,-3.50
2019,03,04,01,39,-3.50
2019,03,04,01,40,-3.60
2019,03,04,01,41,-3.60
2019,03,04,01,42,-3.60
2019,03,04,01,43,-3.60
2019,03,04,01,44,-3.60
2019,03,04,01,45,-3.60
2019,03,04,01,46,-3.60
2019,03,04,01,47,-3.60
2019,03,04,01,48,-3.60
2019,03,04,01,49,-3.70
2019,03,04,01,50,-3.70
2019,03,04,01,51,-3.70
2019,03,04,01,52,-3.70
2019,03,04,01,53,-3.80
2019,03,04,01,54,-3.80
2019,03,04,01,55,-3.80
2019,03,04,01,56,-3.80
2019,03,04,01,57,-3.80
2019,03,04,01,58,-3.80
2019,03,04,01,59,-3.90
2019,03,04,02,00,-3.90
2019,03,04,02,01,-3.90
2019,03,04,02,02,-3.90
2019,03,04,02,03,-3.90
2019,03,04,02,04,-4.00
2019,03,04,02,05,-4.00
2019,03,04,02,06,-4.00
2019,03,04,02,07,-4.00
2019,03,04,02,08,-4.00
2019,03,04,02,09,-4.00
2019,03,04,02,10,-4.10
2019,03,04,02,11,-4.10
2019,03,04,02,12,-4.10
2019,03,04,02,13,-4.10
2019,03,04,02,14,-4.00
2019,03,04,02,15,-4.00
2019,03,04,02,16,-4.00
2019,03,04,02,17,-4.10
2019,03,04,02,18,-4.00
2019,03,04,02,19,-4.10
2019,03,04,02,20,-4.10
2019,03,04,02,21,-4.10
2019,03,04,02,22,-4.10
2019,03,04,02,23,-4.10
2019,03,04,02,24,-4.10
2019,03,04,02,25,-4.10
2019,03,04,02,26,-4.10
2019,03,04,02,27,-4.10
2019,03,04,02,28,-4.10
2019,03,04,02,29,-4.10
2019,03,04,02,30,-4.10
2019,03,04,02,31,-4.10
2019,03,04,02,32,-4.10
2019,03,04,02,33,-4.10
2019,03,04,02,34,-4.10
2019,03,04,02,35,-4.10
2019,03,04,02,36,-4.10
2019,03,04,02,37,-4.10
2019,03,04,02,38,-4.20
2019,03,04,02,39,-4.20
2019,03,04,02,40,-4.20
2019,03,04,02,41,-4.20
2019,03,04,02,42,-4.20
2019,03,04,02,43,-4.20
2019,03,04,02,44,-4.30
2019,03,04,02,45,-4.30
2019,03,04,02,46,-4.30
2019,03,04,02,47,-4.30
2019,03,04,02,48,-4.30
2019,03,04,02,49,-4.30
2019,03,04,02,50,-4.30
2019,03,04,02,51,-4.30
2019,03,04,02,52,-4.30
2019,03,04,02,53,-4.30
2019,03,04,02,54,-4.30
2019,03,04,02,55,-4.30
2019,03,04,02,56,-4.30
2019,03,04,02,57,-4.30
2019,03,04,02,58,-4.30
2019,03,04,02,59,-4.30
2019,03,04,03,00,-4.30
2019,03,04,03,01,-4.30
2019,03,04,03,02,-4.40
2019,03,04,03,03,-4.40
2019,03,04,03,04,-4.40
2019,03,04,03,05,-4.40
2019,03,04,03,06,-4.40
2019,03,04,03,07,-4.40
2019,03,04,03,08,-4.40
2019,03,04,03,09,-4.50
2019,03,04,03,10,-4.50
2019,03,04,03,11,-4.50
2019,03,04,03,12,-4.50
2019,03,04,03,13,-4.60
2019,03,04,03,14,-4.60
2019,03,04,03,15,-4.60
2019,03,04,03,16,-4.60
2019,03,04,03,17,-4.60
2019,03,04,03,18,-4.60
2019,03,04,03,19,-4.60
2019,03,04,03,20,-4.70
2019,03,04,03,21,-4.70
2019,03,04,03,22,-4.70
2019,03,04,03,23,-4.70
2019,03,04,03,24,-4.70
2019,03,04,03,25,-4.70
2019,03,04,03,26,-4.70
2019,03,04,03,27,-4.70
2019,03,04,03,28,-4.70
2019,03,04,03,29,-4.80
2019,03,04,03,30,-4.70
2019,03,04,03,31,-4.80
2019,03,04,03,32,-4.70
2019,03,04,03,33,-4.70
2019,03,04,03,34,-4.70
2019,03,04,03,35,-4.70
2019,03,04,03,36,-4.70
2019,03,04,03,37,-4.70
2019,03,04,03,38,-4.60
2019,03,04,03,39,-4.60
2019,03,04,03,40,-4.60
2019,03,04,03,41,-4.60
2019,03,04,03,42,-4.60
2019,03,04,03,43,-4.60
2019,03,04,03,44,-4.60
2019,03,04,03,45,-4.60
2019,03,04,03,46,-4.60
2019,03,04,03,47,-4.60
2019,03,04,03,48,-4.60
2019,03,04,03,49,-4.60
2019,03,04,03,50,-4.60
2019,03,04,03,51,-4.60
2019,03,04,03,52,-4.70
2019,03,04,03,53,-4.70
2019,03,04,03,54,-4.70
2019,03,04,03,55,-4.70
2019,03,04,03,56,-4.70
2019,03,04,03,57,-4.70
2019,03,04,03,58,-4.70
2019,03,04,03,59,-4.70
2019,03,04,04,00,-4.70
2019,03,04,04,01,-4.70
2019,03,04,04,02,-4.70
2019,03,04,04,03,-4.70
2019,03,04,04,04,-4.70
2019,03,04,04,05,-4.70
2019,03,04,04,06,-4.70
2019,03,04,04,07,-4.70
2019,03,04,04,08,-4.70
2019,03,04,04,09,-4.70
2019,03,04,04,10,-4.70
2019,03,04,04,11,-4.70
2019,03,04,04,12,-4.70
2019,03,04,04,13,-4.70
2019,03,04,04,14,-4.80
2019,03,04,04,15,-4.80
2019,03,04,04,16,-4.80
2019,03,04,04,17,-4.80
2019,03,04,04,18,-4.80
2019,03,04,04,19,-4.80
2019,03,04,04,20,-4.80
2019,03,04,04,21,-4.90
2019,03,04,04,22,-4.90
2019,03,04,04,23,-4.90
2019,03,04,04,24,-4.90
2019,03,04,04,25,-4.90
2019,03,04,04,26,-4.90
2019,03,04,04,27,-4.90
2019,03,04,04,28,-4.90
2019,03,04,04,29,-4.90
2019,03,04,04,30,-4.90
2019,03,04,04,31,-4.80
2019,03,04,04,32,-4.80
2019,03,04,04,33,-4.80
2019,03,04,04,34,-4.80
2019,03,04,04,35,-4.80
2019,03,04,04,36,-4.80
2019,03,04,04,37,-4.70
2019,03,04,04,38,-4.70
2019,03,04,04,39,-4.70
2019,03,04,04,40,-4.60
2019,03,04,04,41,-4.60
2019,03,04,04,42,-4.60
2019,03,04,04,43,-4.60
2019,03,04,04,44,-4.60
2019,03,04,04,45,-4.60
2019,03,04,04,46,-4.60
2019,03,04,04,47,-4.60
2019,03,04,04,48,-4.60
2019,03,04,04,49,-4.60
2019,03,04,04,50,-4.60
2019,03,04,04,51,-4.60
2019,03,04,04,52,-4.60
2019,03,04,04,53,-4.60
2019,03,04,04,54,-4.60
2019,03,04,04,55,-4.70
2019,03,04,04,56,-4.70
2019,03,04,04,57,-4.70
2019,03,04,04,58,-4.70
2019,03,04,04,59,-4.70
2019,03,04,05,00,-4.70
2019,03,04,05,01,-4.80
2019,03,04,05,02,-4.80
2019,03,04,05,03,-4.80
2019,03,04,05,04,-4.80
2019,03,04,05,05,-4.80
2019,03,04,05,06,-4.90
2019,03,04,05,07,-4.90
2019,03,04,05,08,-4.90
2019,03,04,05,09,-4.90
2019,03,04,05,10,-5.00
2019,03,04,05,11,-5.00
2019,03,04,05,12,-5.00
2019,03,04,05,13,-5.10
2019,03,04,05,14,-5.10
2019,03,04,05,15,-5.10
2019,03,04,05,16,-5.10
2019,03,04,05,17,-5.10
2019,03,04,05,18,-5.20
2019,03,04,05,19,-5.20
2019,03,04,05,20,-5.20
2019,03,04,05,21,-5.20
2019,03,04,05,22,-5.20
2019,03,04,05,23,-5.20
2019,03,04,05,24,-5.20
2019,03,04,05,25,-5.20
2019,03,04,05,26,-5.20
2019,03,04,05,27,-5.20
2019,03,04,05,28,-5.20
2019,03,04,05,29,-5.20
2019,03,04,05,30,-5.20
2019,03,04,05,31,-5.20
2019,03,04,05,32,-5.20
2019,03,04,05,33,-5.20
2019,03,04,05,34,-5.10
2019,03,04,05,35,-5.10
2019,03,04,05,36,-5.10
2019,03,04,05,37,-5.10
2019,03,04,05,38,-5.10
2019,03,04,05,39,-5.10
2019,03,04,05,40,-5.10
2019,03,04,05,41,-5.10
2019,03,04,05,42,-5.10
2019,03,04,05,43,-5.10
2019,03,04,05,44,-5.10
2019,03,04,05,45,-5.10
2019,03,04,05,46,-5.10
2019,03,04,05,47,-5.10
2019,03,04,05,48,-5.10
2019,03,04,05,49,-5.10
2019,03,04,05,50,-5.10
2019,03,04,05,51,-5.10
2019,03,04,05,52,-5.10
2019,03,04,05,53,-5.10
2019,03,04,05,54,-5.10
2019,03,04,05,55,-5.10
2019,03,04,05,56,-5.20
2019,03,04,05,57,-5.20
2019,03,04,05,58,-5.20
2019,03,04,05,59,-5.20
2019,03,04,06,00,-5.20
2019,03,04,06,01,-5.20
2019,03,04,06,02,-5.30
2019,03,04,06,03,-5.30
2019,03,04,06,04,-5.30
2019,03,04,06,05,-5.30
2019,03,04,06,06,-5.30
2019,03,04,06,07,-5.30
2019,03,04,06,08,-5.30
2019,03,04,06,09,-5.30
2019,03,04,06,10,-5.40
2019,03,04,06,11,-5.40
2019,03,04,06,12,-5.40
2019,03,04,06,13,-5.40
2019,03,04,06,14,-5.40
2019,03,04,06,15,-5.40
2019,03,04,06,16,-5.40
2019,03,04,06,17,-5.50
2019,03,04,06,18,-5.50
2019,03,04,06,19,-5.50
2019,03,04,06,20,-5.50
2019,03,04,06,21,-5.50
2019,03,04,06,22,-5.50
2019,03,04,06,23,-5.50
2019,03,04,06,24,-5.50
2019,03,04,06,25,-5.50
2019,03,04,06,26,-5.50
2019,03,04,06,27,-5.50
2019,03,04,06,28,-5.50
2019,03,04,06,29,-5.50
2019,03,04,06,30,-5.50
2019,03,04,06,31,-5.50
2019,03,04,06,32,-5.40
2019,03,04,06,33,-5.40
2019,03,04,06,34,-5.40
2019,03,04,06,35,-5.40
2019,03,04,06,36,-5.40
2019,03,04,06,37,-5.40
2019,03,04,06,38,-5.40
2019,03,04,06,39,-5.40
2019,03,04,06,40,-5.40
2019,03,04,06,41,-5.40
2019,03,04,06,42,-5.40
2019,03,04,06,43,-5.40
2019,03,04,06,44,-5.40
2019,03,04,06,45,-5.40
2019,03,04,06,46,-5.40
2019,03,04,06,47,-5.40
2019,03,04,06,48,-5.40
2019,03,04,06,49,-5.40
2019,03,04,06,50,-5.50
2019,03,04,06,51,-5.50
2019,03,04,06,52,-5.50
2019,03,04,06,53,-5.50
2019,03,04,06,54,-5.50
2019,03,04,06,55,-5.50
2019,03,04,06,56,-5.60
2019,03,04,06,57,-5.60
2019,03,04,06,58,-5.60
2019,03,04,06,59,-5.60
2019,03,04,07,00,-5.60
2019,03,04,07,01,-5.60
2019,03,04,07,02,-5.60
2019,03,04,07,03,-5.60
2019,03,04,07,04,-5.60
2019,03,04,07,05,-5.60
2019,03,04,07,06,-5.60
2019,03,04,07,07,-5.50
2019,03,04,07,08,-5.50
2019,03,04,07,09,-5.50
2019,03,04,07,10,-5.40
2019,03,04,07,11,-5.40
2019,03,04,07,12,-5.40
2019,03,04,07,13,-5.40
2019,03,04,07,14,-5.40
2019,03,04,07,15,-5.40
2019,03,04,07,16,-5.40
2019,03,04,07,17,-5.40
2019,03,04,07,18,-5.40
2019,03,04,07,19,-5.30
2019,03,04,07,20,-5.30
2019,03,04,07,21,-5.30
2019,03,04,07,22,-5.30
2019,03,04,07,23,-5.30
2019,03,04,07,24,-5.30
2019,03,04,07,25,-5.30
2019,03,04,07,26,-5.30
2019,03,04,07,27,-5.30
2019,03,04,07,28,-5.30
2019,03,04,07,29,-5.30
2019,03,04,07,30,-5.30
2019,03,04,07,31,-5.30
2019,03,04,07,32,-5.30
2019,03,04,07,33,-5.30
2019,03,04,07,34,-5.30
2019,03,04,07,35,-5.30
2019,03,04,07,36,-5.30
2019,03,04,07,37,-5.30
2019,03,04,07,38,-5.30
2019,03,04,07,39,-5.30
2019,03,04,07,40,-5.30
2019,03,04,07,41,-5.30
2019,03,04,07,42,-5.30
2019,03,04,07,43,-5.30
2019,03,04,07,44,-5.30
2019,03,04,07,45,-5.30
2019,03,04,07,46,-5.30
2019,03,04,07,47,-5.30
2019,03,04,07,48,-5.30
2019,03,04,07,49,-5.30
2019,03,04,07,50,-5.30
2019,03,04,07,51,-5.30
2019,03,04,07,52,-5.30
2019,03,04,07,53,-5.20
2019,03,04,07,54,-5.20
2019,03,04,07,55,-5.20
2019,03,04,07,56,-5.20
2019,03,04,07,57,-5.10
2019,03,04,07,58,-5.10
2019,03,04,07,59,-5.10
2019,03,04,08,00,-5.00
2019,03,04,08,01,-4.90
2019,03,04,08,02,-4.90
2019,03,04,08,03,-4.90
2019,03,04,08,04,-4.80
2019,03,04,08,05,-4.80
2019,03,04,08,06,-4.80
2019,03,04,08,07,-4.70
2019,03,04,08,08,-4.70
2019,03,04,08,09,-4.70
2019,03,04,08,10,-4.60
2019,03,04,08,11,-4.60
2019,03,04,08,12,-4.60
2019,03,04,08,13,-4.50
2019,03,04,08,14,-4.50
2019,03,04,08,15,-4.50
2019,03,04,08,16,-4.40
2019,03,04,08,17,-4.40
2019,03,04,08,18,-4.30
2019,03,04,08,19,-4.30
2019,03,04,08,20,-4.20
2019,03,04,08,21,-4.20
2019,03,04,08,22,-4.10
2019,03,04,08,23,-4.10
2019,03,04,08,24,-4.00
2019,03,04,08,25,-4.00
2019,03,04,08,26,-3.90
2019,03,04,08,27,-3.80
2019,03,04,08,28,-3.80
2019,03,04,08,29,-3.80
2019,03,04,08,30,-3.80
2019,03,04,08,31,-3.70
2019,03,04,08,32,-3.70
2019,03,04,08,33,-3.60
2019,03,04,08,34,-3.60
2019,03,04,08,35,-3.60
2019,03,04,08,36,-3.50
2019,03,04,08,37,-3.50
2019,03,04,08,38,-3.40
2019,03,04,08,39,-3.40
2019,03,04,08,40,-3.30
2019,03,04,08,41,-3.30
2019,03,04,08,42,-3.20
2019,03,04,08,43,-3.20
2019,03,04,08,44,-3.10
2019,03,04,08,45,-3.00
2019,03,04,08,46,-2.90
2019,03,04,08,47,-2.80
2019,03,04,08,48,-2.80
2019,03,04,08,49,-2.70
2019,03,04,08,50,-2.70
2019,03,04,08,51,-2.60
2019,03,04,08,52,-2.60
2019,03,04,08,53,-2.50
2019,03,04,08,54,-2.40
2019,03,04,08,55,-2.40
2019,03,04,08,56,-2.30
2019,03,04,08,57,-2.30
2019,03,04,08,58,-2.20
2019,03,04,08,59,-2.10
2019,03,04,09,00,-2.00
2019,03,04,09,01,-2.00
2019,03,04,09,02,-1.90
2019,03,04,09,03,-1.80
2019,03,04,09,04,-1.80
2019,03,04,09,05,-1.70
2019,03,04,09,06,-1.70
2019,03,04,09,07,-1.60
2019,03,04,09,08,-1.50
2019,03,04,09,09,-1.40
2019,03,04,09,10,-1.30
2019,03,04,09,11,-1.30
2019,03,04,09,12,-1.20
2019,03,04,09,13,-1.10
2019,03,04,09,14,-1.00
2019,03,04,09,15,-0.90
2019,03,04,09,16,-0.80
2019,03,04,09,17,-0.70
2019,03,04,09,18,-0.60
2019,03,04,09,19,-0.40
2019,03,04,09,20,-0.10
2019,03,04,09,21,0.10
2019,03,04,09,22,0.30
2019,03,04,09,23,0.50
2019,03,04,09,24,0.60
2019,03,04,09,25,0.80
2019,03,04,09,26,0.90
2019,03,04,09,27,1.00
2019,03,04,09,28,1.10
2019,03,04,09,29,1.20
2019,03,04,09,30,1.30
2019,03,04,09,31,1.30
2019,03,04,09,32,1.40
2019,03,04,09,33,1.50
2019,03,04,09,34,1.60
2019,03,04,09,35,1.60
2019,03,04,09,36,1.70
2019,03,04,09,37,1.80
2019,03,04,09,38,1.80
2019,03,04,09,39,1.80
2019,03,04,09,40,1.90
2019,03,04,09,41,1.90
2019,03,04,09,42,1.90
2019,03,04,09,43,2.00
2019,03,04,09,44,2.00
2019,03,04,09,45,2.00
2019,03,04,09,46,2.10
2019,03,04,09,47,2.10
2019,03,04,09,48,2.10
2019,03,04,09,49,2.10
2019,03,04,09,50,2.10
2019,03,04,09,51,2.10
2019,03,04,09,52,2.10
2019,03,04,09,53,2.20
2019,03,04,09,54,2.20
2019,03,04,09,55,2.20
2019,03,04,09,56,2.20
2019,03,04,09,57,2.20
2019,03,04,09,58,2.20
2019,03,04,09,59,2.20
2019,03,04,10,00,2.30
2019,03,04,10,01,2.30
2019,03,04,10,02,2.30
2019,03,04,10,03,2.40
2019,03,04,10,04,2.40
2019,03,04,10,05,2.50
2019,03,04,10,06,2.50
2019,03,04,10,07,2.60
2019,03,04,10,08,2.60
2019,03,04,10,09,2.60
2019,03,04,10,10,2.60
2019,03,04,10,11,2.60
2019,03,04,10,12,2.60
2019,03,04,10,13,2.60
2019,03,04,10,14,2.60
2019,03,04,10,15,2.60
2019,03,04,10,16,2.60
2019,03,04,10,17,2.50
2019,03,04,10,18,2.50
2019,03,04,10,19,2.40
2019,03,04,10,20,2.40
2019,03,04,10,21,2.50
2019,03,04,10,22,2.50
2019,03,04,10,23,2.50
2019,03,04,10,24,2.50
2019,03,04,10,25,2.60
2019,03,04,10,26,2.60
2019,03,04,10,27,2.70
2019,03,04,10,28,2.70
2019,03,04,10,29,2.70
2019,03,04,10,30,2.80
2019,03,04,10,31,2.80
2019,03,04,10,32,2.80
2019,03,04,10,33,2.90
2019,03,04,10,34,2.90
2019,03,04,10,35,3.00
2019,03,04,10,36,3.00
2019,03,04,10,37,3.10
2019,03,04,10,38,3.10
2019,03,04,10,39,3.10
2019,03,04,10,40,3.10
2019,03,04,10,41,3.10
2019,03,04,10,42,3.10
2019,03,04,10,43,3.10
2019,03,04,10,44,3.10
2019,03,04,10,45,3.10
2019,03,04,10,46,3.10
2019,03,04,10,47,3.10
2019,03,04,10,48,3.10
2019,03,04,10,49,3.10
2019,03,04,10,50,3.10
2019,03,04,10,51,3.10
2019,03,04,10,52,3.10
2019,03,04,10,53,3.10
2019,03,04,10,54,3.10
2019,03,04,10,55,3.10
2019,03,04,10,56,3.10
2019,03,04,10,57,3.20
2019,03,04,10,58,3.20
2019,03,04,10,59,3.20
2019,03,04,11,00,3.30
2019,03,04,11,01,3.30
2019,03,04,11,02,3.30
2019,03,04,11,03,3.30
2019,03,04,11,04,3.30
2019,03,04,11,05,3.30
2019,03,04,11,06,3.20
2019,03,04,11,07,3.20
2019,03,04,11,08,3.20
2019,03,04,11,09,3.20
2019,03,04,11,10,3.20
2019,03,04,11,11,3.30
2019,03,04,11,12,3.30
2019,03,04,11,13,3.30
2019,03,04,11,14,3.30
2019,03,04,11,15,3.30
2019,03,04,11,16,3.30
2019,03,04,11,17,3.30
2019,03,04,11,18,3.30
2019,03,04,11,19,3.30
2019,03,04,11,20,3.20
2019,03,04,11,21,3.20
2019,03,04,11,22,3.20
2019,03,04,11,23,3.20
2019,03,04,11,24,3.20
2019,03,04,11,25,3.20
2019,03,04,11,26,3.30
2019,03,04,11,27,3.40
2019,03,04,11,28,3.40
2019,03,04,11,29,3.50
2019,03,04,11,30,3.50
2019,03,04,11,31,3.60
2019,03,04,11,32,3.60
2019,03,04,11,33,3.60
2019,03,04,11,34,3.60
2019,03,04,11,35,3.60
2019,03,04,11,36,3.60
2019,03,04,11,37,3.60
2019,03,04,11,38,3.60
2019,03,04,11,39,3.50
2019,03,04,11,40,3.50
2019,03,04,11,41,3.40
2019,03,04,11,42,3.30
2019,03,04,11,43,3.30
2019,03,04,11,44,3.40
2019,03,04,11,45,3.40
2019,03,04,11,46,3.50
2019,03,04,11,47,3.60
2019,03,04,11,48,3.60
2019,03,04,11,49,3.60
2019,03,04,11,50,3.60
2019,03,04,11,51,3.50
2019,03,04,11,52,3.50
2019,03,04,11,53,3.50
2019,03,04,11,54,3.50
2019,03,04,11,55,3.50
2019,03,04,11,56,3.40
2019,03,04,11,57,3.40
2019,03,04,11,58,3.40
2019,03,04,11,59,3.30
2019,03,04,12,00,3.30
2019,03,04,12,01,3.30
2019,03,04,12,02,3.40
2019,03,04,12,03,3.50
2019,03,04,12,04,3.50
2019,03,04,12,05,3.50
2019,03,04,12,06,3.50
2019,03,04,12,07,3.60
2019,03,04,12,08,3.60
2019,03,04,12,09,3.60
2019,03,04,12,10,3.60
2019,03,04,12,11,3.50
2019,03,04,12,12,3.50
2019,03,04,12,13,3.50
2019,03,04,12,14,3.50
2019,03,04,12,15,3.50
2019,03,04,12,16,3.50
2019,03,04,12,17,3.60
2019,03,04,12,18,3.60
2019,03,04,12,19,3.70
2019,03,04,12,20,3.80
2019,03,04,12,21,3.90
2019,03,04,12,22,4.00
2019,03,04,12,23,4.00
2019,03,04,12,24,4.10
2019,03,04,12,25,4.10
2019,03,04,12,26,4.10
2019,03,04,12,27,4.10
2019,03,04,12,28,4.10
2019,03,04,12,29,4.10
2019,03,04,12,30,4.20
2019,03,04,12,31,4.20
2019,03,04,12,32,4.20
2019,03,04,12,33,4.30
2019,03,04,12,34,4.30
2019,03,04,12,35,4.30
2019,03,04,12,36,4.40
2019,03,04,12,37,4.40
2019,03,04,12,38,4.40
2019,03,04,12,39,4.40
2019,03,04,12,40,4.40
2019,03,04,12,41,4.40
2019,03,04,12,42,4.50
2019,03,04,12,43,4.50
2019,03,04,12,44,4.50
2019,03,04,12,45,4.50
2019,03,04,12,46,4.50
2019,03,04,12,47,4.50
2019,03,04,12,48,4.50
2019,03,04,12,49,4.50
2019,03,04,12,50,4.40
2019,03,04,12,51,4.30
2019,03,04,12,52,4.30
2019,03,04,12,53,4.40
2019,03,04,12,54,4.40
2019,03,04,12,55,4.40
2019,03,04,12,56,4.50
2019,03,04,12,57,4.50
2019,03,04,12,58,4.50
2019,03,04,12,59,4.60
2019,03,04,13,00,4.60
2019,03,04,13,01,4.60
2019,03,04,13,02,4.70
2019,03,04,13,03,4.80
2019,03,04,13,04,4.80
2019,03,04,13,05,4.80
2019,03,04,13,06,4.90
2019,03,04,13,07,5.00
2019,03,04,13,08,5.00
2019,03,04,13,09,4.80
2019,03,04,13,10,4.70
2019,03,04,13,11,4.60
2019,03,04,13,12,4.60
2019,03,04,13,13,4.60
2019,03,04,13,14,4.60
2019,03,04,13,15,4.60
2019,03,04,13,16,4.70
2019,03,04,13,17,4.80
2019,03,04,13,18,4.90
2019,03,04,13,19,4.90
2019,03,04,13,20,4.90
2019,03,04,13,21,4.90
2019,03,04,13,22,5.00
2019,03,04,13,23,5.00
2019,03,04,13,24,5.00
2019,03,04,13,25,4.90
2019,03,04,13,26,4.80
2019,03,04,13,27,4.70
2019,03,04,13,28,4.60
2019,03,04,13,29,4.60
2019,03,04,13,30,4.50
2019,03,04,13,31,4.50
2019,03,04,13,32,4.50
2019,03,04,13,33,4.50
2019,03,04,13,34,4.50
2019,03,04,13,35,4.50
2019,03,04,13,36,4.50
2019,03,04,13,37,4.60
2019,03,04,13,38,4.60
2019,03,04,13,39,4.70
2019,03,04,13,40,4.70
2019,03,04,13,41,4.80
2019,03,04,13,42,4.70
2019,03,04,13,43,4.70
2019,03,04,13,44,4.60
2019,03,04,13,45,4.60
2019,03,04,13,46,4.70
2019,03,04,13,47,4.70
2019,03,04,13,48,4.80
2019,03,04,13,49,4.90
2019,03,04,13,50,5.00
2019,03,04,13,51,5.10
2019,03,04,13,52,5.10
2019,03,04,13,53,5.20
2019,03,04,13,54,5.20
2019,03,04,13,55,5.20
2019,03,04,13,56,5.20
2019,03,04,13,57,5.20
2019,03,04,13,58,5.20
2019,03,04,13,59,5.20
2019,03,04,14,00,5.20
2019,03,04,14,01,5.20
2019,03,04,14,02,5.20
2019,03,04,14,03,5.20
2019,03,04,14,04,5.10
2019,03,04,14,05,5.00
2019,03,04,14,06,5.00
2019,03,04,14,07,5.10
2019,03,04,14,08,5.20
2019,03,04,14,09,5.20
2019,03,04,14,10,5.30
2019,03,04,14,11,5.30
2019,03,04,14,12,5.30
2019,03,04,14,13,5.30
2019,03,04,14,14,5.30
2019,03,04,14,15,5.40
2019,03,04,14,16,5.40
2019,03,04,14,17,5.50
2019,03,04,14,18,5.60
2019,03,04,14,19,5.70
2019,03,04,14,20,5.70
2019,03,04,14,21,5.80
2019,03,04,14,22,5.90
2019,03,04,14,23,5.90
2019,03,04,14,24,5.90
2019,03,04,14,25,5.90
2019,03,04,14,26,5.90
2019,03,04,14,27,5.90
2019,03,04,14,28,5.80
2019,03,04,14,29,5.80
2019,03,04,14,30,5.80
2019,03,04,14,31,5.70
2019,03,04,14,32,5.60
2019,03,04,14,33,5.50
2019,03,04,14,34,5.40
2019,03,04,14,35,5.40
2019,03,04,14,36,5.40
2019,03,04,14,37,5.40
2019,03,04,14,38,5.30
2019,03,04,14,39,5.20
2019,03,04,14,40,5.10
2019,03,04,14,41,5.10
2019,03,04,14,42,5.10
2019,03,04,14,43,5.10
2019,03,04,14,44,5.10
2019,03,04,14,45,5.20
2019,03,04,14,46,5.20
2019,03,04,14,47,5.30
2019,03,04,14,48,5.30
2019,03,04,14,49,5.30
2019,03,04,14,50,5.20
2019,03,04,14,51,5.20
2019,03,04,14,52,5.20
2019,03,04,14,53,5.20
2019,03,04,14,54,5.20
2019,03,04,14,55,5.30
2019,03,04,14,56,5.30
2019,03,04,14,57,5.30
2019,03,04,14,58,5.30
2019,03,04,14,59,5.30
2019,03,04,15,00,5.30
2019,03,04,15,01,5.20
2019,03,04,15,02,5.20
2019,03,04,15,03,5.20
2019,03,04,15,04,5.20
2019,03,04,15,05,5.30
2019,03,04,15,06,5.30
2019,03,04,15,07,5.40
2019,03,04,15,08,5.50
2019,03,04,15,09,5.50
2019,03,04,15,10,5.50
2019,03,04,15,11,5.40
2019,03,04,15,12,5.40
2019,03,04,15,13,5.40
2019,03,04,15,14,5.40
2019,03,04,15,15,5.40
2019,03,04,15,16,5.40
2019,03,04,15,17,5.50
2019,03,04,15,18,5.50
2019,03,04,15,19,5.50
2019,03,04,15,20,5.40
2019,03,04,15,21,5.40
2019,03,04,15,22,5.50
2019,03,04,15,23,5.50
2019,03,04,15,24,5.60
2019,03,04,15,25,5.60
2019,03,04,15,26,5.50
2019,03,04,15,27,5.60
2019,03,04,15,28,5.60
2019,03,04,15,29,5.60
2019,03,04,15,30,5.60
2019,03,04,15,31,5.70
2019,03,04,15,32,5.70
2019,03,04,15,33,5.80
2019,03,04,15,34,5.90
2019,03,04,15,35,6.00
2019,03,04,15,36,6.00
2019,03,04,15,37,6.10
2019,03,04,15,38,6.10
2019,03,04,15,39,6.20
2019,03,04,15,40,6.20
2019,03,04,15,41,6.20
2019,03,04,15,42,6.10
2019,03,04,15,43,6.10
2019,03,04,15,44,6.10
2019,03,04,15,45,6.10
2019,03,04,15,46,6.10
2019,03,04,15,47,6.10
2019,03,04,15,48,6.10
2019,03,04,15,49,6.20
2019,03,04,15,50,6.10
2019,03,04,15,51,6.10
2019,03,04,15,52,6.10
2019,03,04,15,53,6.00
2019,03,04,15,54,6.00
2019,03,04,15,55,6.00
2019,03,04,15,56,6.10
2019,03,04,15,57,6.10
2019,03,04,15,58,6.10
2019,03,04,15,59,6.20
2019,03,04,16,00,6.30
2019,03,04,16,01,6.30
2019,03,04,16,02,6.30
2019,03,04,16,03,6.40
2019,03,04,16,04,6.40
2019,03,04,16,05,6.40
2019,03,04,16,06,6.40
2019,03,04,16,07,6.40
2019,03,04,16,08,6.50
2019,03,04,16,09,6.50
2019,03,04,16,10,6.50
2019,03,04,16,11,6.60
2019,03,04,16,12,6.60
2019,03,04,16,13,6.60
2019,03,04,16,14,6.60
2019,03,04,16,15,6.70
2019,03,04,16,16,6.70
2019,03,04,16,17,6.70
2019,03,04,16,18,6.60
2019,03,04,16,19,6.70
2019,03,04,16,20,6.70
2019,03,04,16,21,6.70
2019,03,04,16,22,6.60
2019,03,04,16,23,6.60
2019,03,04,16,24,6.60
2019,03,04,16,25,6.60
2019,03,04,16,26,6.60
2019,03,04,16,27,6.50
2019,03,04,16,28,6.50
2019,03,04,16,29,6.50
2019,03,04,16,30,6.50
2019,03,04,16,31,6.50
2019,03,04,16,32,6.50
2019,03,04,16,33,6.50
2019,03,04,16,34,6.50
2019,03,04,16,35,6.40
2019,03,04,16,36,6.40
2019,03,04,16,37,6.40
2019,03,04,16,38,6.30
2019,03,04,16,39,6.30
2019,03,04,16,40,6.30
2019,03,04,16,41,6.30
2019,03,04,16,42,6.30
2019,03,04,16,43,6.30
2019,03,04,16,44,6.30
2019,03,04,16,45,6.30
2019,03,04,16,46,6.30
2019,03,04,16,47,6.20
2019,03,04,16,48,6.20
2019,03,04,16,49,6.10
2019,03,04,16,50,6.10
2019,03,04,16,51,6.00
2019,03,04,16,52,6.00
2019,03,04,16,53,6.00
2019,03,04,16,54,6.00
2019,03,04,16,55,6.00
2019,03,04,16,56,6.00
2019,03,04,16,57,6.10
2019,03,04,16,58,6.00
2019,03,04,16,59,6.00
2019,03,04,17,00,5.90
2019,03,04,17,01,5.90
2019,03,04,17,02,5.80
2019,03,04,17,03,5.80
2019,03,04,17,04,5.80
2019,03,04,17,05,5.90
2019,03,04,17,06,5.90
2019,03,04,17,07,5.90
2019,03,04,17,08,5.90
2019,03,04,17,09,5.80
2019,03,04,17,10,5.80
2019,03,04,17,11,5.80
2019,03,04,17,12,5.80
2019,03,04,17,13,5.80
2019,03,04,17,14,5.80
2019,03,04,17,15,5.70
2019,03,04,17,16,5.70
2019,03,04,17,17,5.60
2019,03,04,17,18,5.50
2019,03,04,17,19,5.40
2019,03,04,17,20,5.40
2019,03,04,17,21,5.30
2019,03,04,17,22,5.20
2019,03,04,17,23,5.20
2019,03,04,17,24,5.10
2019,03,04,17,25,5.00
2019,03,04,17,26,4.90
2019,03,04,17,27,4.90
2019,03,04,17,28,4.80
2019,03,04,17,29,4.80
2019,03,04,17,30,4.70
2019,03,04,17,31,4.60
2019,03,04,17,32,4.60
2019,03,04,17,33,4.50
2019,03,04,17,34,4.40
2019,03,04,17,35,4.30
2019,03,04,17,36,4.30
2019,03,04,17,37,4.20
2019,03,04,17,38,4.10
2019,03,04,17,39,4.10
2019,03,04,17,40,4.00
2019,03,04,17,41,4.00